Time,TemperatureF,DewpointF,PressureIn,WindDirection,WindDirectionDegrees,WindSpeedMPH,WindSpeedGustMPH,Humidity,HourlyPrecipIn,Conditions,Clouds,dailyrainin,SoftwareType,DateUTC
2013-09-06 00:02:00,69.5,62.3,30.10,SSE,164,2.3,2.3,78,0.00,RA,,0.00,WeatherDisplay:10.37,2013-09-06 05:02:00,
2013-09-06 00:07:00,69.2,62.0,30.10,SSE,163,2.3,2.3,78,0.00,RA,,0.00,WeatherDisplay:10.37,2013-09-06 05:07:00,
2013-09-06 00:12:00,68.8,62.0,30.10,SSE,153,3.0,3.0,79,0.00,CLR,,0.00,WeatherDisplay:10.37,2013-09-06 05:12:00,
2013-09-06 00:17:00,68.8,62.0,30.09,SSE,156,2.3,2.3,79,0.00,CLR,,0.00,WeatherDisplay:10.37,2013-09-06 05:17:00,
2013-09-06 00:22:00,68.8,62.0,30.09,ESE,113,1.2,1.2,79,0.00,CLR,,0.00,WeatherDisplay:10.37,2013-09-06 05:22:00,
2013-09-06 00:27:00,68.7,61.9,30.09,ESE,113,2.3,2.3,79,0.00,CLR,,0.00,WeatherDisplay:10.37,2013-09-06 05:27:00,
2013-09-06 00:32:00,68.4,61.6,30.09,SE,124,2.3,2.3,79,0.00,CLR,,0.00,WeatherDisplay:10.37,2013-09-06 05:32:00,
2013-09-06 00:37:00,68.1,61.7,30.09,SE,126,1.2,1.2,80,0.00,CLR,,0.00,WeatherDisplay:10.37,2013-09-06 05:37:00,
2013-09-06 00:42:00,67.9,61.9,30.10,SE,137,3.5,3.5,81,0.00,CLR,,0.00,WeatherDisplay:10.37,2013-09-06 05:42:00,
2013-09-06 00:47:00,67.6,61.6,30.10,SE,137,1.2,1.2,81,0.00,CLR,,0.00,WeatherDisplay:10.37,2013-09-06 05:47:00,
2013-09-06 00:52:00,67.3,61.6,30.10,SSE,148,2.3,2.3,82,0.00,CLR,,0.00,WeatherDisplay:10.37,2013-09-06 05:52:00,
2013-09-06 00:57:00,67.0,61.3,30.10,SSE,148,2.3,2.3,82,0.00,CLR,,0.00,WeatherDisplay:10.37,2013-09-06 05:57:00,
2013-09-06 01:02:00,66.8,61.1,30.10,SE,137,3.5,3.5,82,0.00,CLR,,0.00,WeatherDisplay:10.37,2013-09-06 06:02:00,
2013-09-06 01:07:00,66.5,61.2,30.10,SE,136,2.3,2.3,83,0.00,CLR,,0.00,WeatherDisplay:10.37,2013-09-06 06:07:00,
2013-09-06 01:12:00,66.1,61.1,30.10,SE,136,1.2,1.2,84,0.00,CLR,,0.00,WeatherDisplay:10.37,2013-09-06 06:12:00,
2013-09-06 01:17:00,65.8,60.8,30.10,SE,136,2.0,2.0,84,0.00,CLR,,0.00,WeatherDisplay:10.37,2013-09-06 06:17:00,
2013-09-06 01:22:00,65.6,61.0,30.10,SE,136,1.2,1.2,85,0.00,CLR,,0.00,WeatherDisplay:10.37,2013-09-06 06:22:00,
2013-09-06 01:27:00,65.4,61.1,30.10,SE,136,1.2,1.2,86,0.00,CLR,,0.00,WeatherDisplay:10.37,2013-09-06 06:27:00,
2013-09-06 01:32:00,65.3,60.7,30.10,SE,135,2.3,2.3,85,0.00,CLR,,0.00,WeatherDisplay:10.37,2013-09-06 06:32:00,
2013-09-06 01:37:00,65.2,60.6,30.10,SE,135,2.3,2.3,85,0.00,CLR,,0.00,WeatherDisplay:10.37,2013-09-06 06:37:00,
2013-09-06 01:42:00,65.2,60.6,30.10,SE,136,1.2,0.0,85,0.00,CLR,,0.00,WeatherDisplay:10.37,2013-09-06 06:42:00,
2013-09-06 01:47:00,65.0,60.4,30.11,SE,136,0.0,0.0,85,0.00,CLR,,0.00,WeatherDisplay:10.37,2013-09-06 06:47:00,
2013-09-06 01:52:00,64.9,60.6,30.10,SE,136,0.0,0.0,86,0.00,CLR,,0.00,WeatherDisplay:10.37,2013-09-06 06:52:00,
2013-09-06 01:57:00,64.8,60.5,30.11,SE,136,1.2,1.2,86,0.00,CLR,,0.00,WeatherDisplay:10.37,2013-09-06 06:57:00,
2013-09-06 02:02:00,64.8,60.2,30.10,SE,136,2.3,2.3,85,0.00,CLR,,0.00,WeatherDisplay:10.37,2013-09-06 07:02:00,
2013-09-06 02:07:00,64.8,60.2,30.10,SE,136,2.3,2.3,85,0.00,CLR,,0.00,WeatherDisplay:10.37,2013-09-06 07:07:00,
2013-09-06 02:12:00,64.7,60.4,30.10,SE,136,2.3,2.3,86,0.00,CLR,,0.00,WeatherDisplay:10.37,2013-09-06 07:12:00,
2013-09-06 02:17:00,64.5,60.2,30.10,SE,136,2.3,2.3,86,0.00,CLR,,0.00,WeatherDisplay:10.37,2013-09-06 07:17:00,
2013-09-06 02:22:00,64.4,60.1,30.10,SE,136,1.2,1.2,86,0.00,CLR,,0.00,WeatherDisplay:10.37,2013-09-06 07:22:00,
2013-09-06 02:27:00,64.3,60.0,30.10,SE,136,2.3,2.3,86,0.00,CLR,,0.00,WeatherDisplay:10.37,2013-09-06 07:27:00,
2013-09-06 02:32:00,64.2,60.2,30.10,SE,135,1.2,1.2,87,0.00,CLR,,0.00,WeatherDisplay:10.37,2013-09-06 07:32:00,
2013-09-06 02:37:00,64.1,60.2,30.10,SE,136,1.2,1.2,87,0.00,CLR,,0.00,WeatherDisplay:10.37,2013-09-06 07:37:00,
2013-09-06 02:42:00,64.0,60.1,30.10,SE,136,1.2,1.2,87,0.00,CLR,,0.00,WeatherDisplay:10.37,2013-09-06 07:42:00,
2013-09-06 02:47:00,63.9,60.0,30.10,SE,136,1.2,1.2,87,0.00,CLR,,0.00,WeatherDisplay:10.37,2013-09-06 07:47:00,
2013-09-06 02:53:00,63.8,59.9,30.10,SE,136,1.2,1.2,87,0.00,CLR,,0.00,WeatherDisplay:10.37,2013-09-06 07:53:00,
2013-09-06 02:58:00,63.7,60.1,30.10,SE,136,0.0,0.0,88,0.00,CLR,,0.00,WeatherDisplay:10.37,2013-09-06 07:58:00,
2013-09-06 03:03:00,63.6,60.0,30.10,SE,136,1.2,1.2,88,0.00,CLR,,0.00,WeatherDisplay:10.37,2013-09-06 08:03:00,
2013-09-06 03:08:00,63.5,59.9,30.09,SE,136,1.2,1.2,88,0.00,CLR,,0.00,WeatherDisplay:10.37,2013-09-06 08:08:00,
2013-09-06 03:13:00,63.4,59.8,30.10,SE,136,1.2,1.2,88,0.00,CLR,,0.00,WeatherDisplay:10.37,2013-09-06 08:13:00,
2013-09-06 03:18:00,63.3,59.7,30.10,SE,136,0.0,0.0,88,0.00,CLR,,0.00,WeatherDisplay:10.37,2013-09-06 08:18:00,
2013-09-06 03:23:00,63.2,59.9,30.09,SE,136,0.0,0.0,89,0.00,CLR,,0.00,WeatherDisplay:10.37,2013-09-06 08:23:00,
2013-09-06 03:28:00,63.1,59.8,30.10,SE,136,0.0,0.0,89,0.00,CLR,,0.00,WeatherDisplay:10.37,2013-09-06 08:28:00,
2013-09-06 03:33:00,62.9,59.6,30.09,SE,136,0.0,0.0,89,0.00,CLR,,0.00,WeatherDisplay:10.37,2013-09-06 08:33:00,
2013-09-06 03:38:00,62.8,59.5,30.09,SE,136,0.0,0.0,89,0.00,CLR,,0.00,WeatherDisplay:10.37,2013-09-06 08:38:00,
2013-09-06 03:43:00,62.7,59.4,30.10,SE,136,0.0,0.0,89,0.00,CLR,,0.00,WeatherDisplay:10.37,2013-09-06 08:43:00,
2013-09-06 03:48:00,62.5,59.5,30.09,SE,136,0.0,0.0,90,0.00,CLR,,0.00,WeatherDisplay:10.37,2013-09-06 08:48:00,
2013-09-06 03:53:00,62.5,59.5,30.09,SE,136,0.0,0.0,90,0.00,CLR,,0.00,WeatherDisplay:10.37,2013-09-06 08:53:00,
2013-09-06 03:58:00,62.4,59.4,30.09,SE,136,0.0,0.0,90,0.00,CLR,,0.00,WeatherDisplay:10.37,2013-09-06 08:58:00,
2013-09-06 04:03:00,62.3,59.6,30.09,SE,136,0.0,0.0,91,0.00,CLR,,0.00,WeatherDisplay:10.37,2013-09-06 09:03:00,
2013-09-06 04:08:00,62.4,59.7,30.09,SE,136,0.0,0.0,91,0.00,CLR,,0.00,WeatherDisplay:10.37,2013-09-06 09:08:00,
2013-09-06 04:13:00,62.3,59.6,30.09,SE,136,0.0,0.0,91,0.00,CLR,,0.00,WeatherDisplay:10.37,2013-09-06 09:13:00,
2013-09-06 04:18:00,62.2,59.5,30.09,SE,136,0.0,0.0,91,0.00,CLR,,0.00,WeatherDisplay:10.37,2013-09-06 09:18:00,
2013-09-06 04:23:00,62.1,59.4,30.09,SE,136,0.0,0.0,91,0.00,CLR,,0.00,WeatherDisplay:10.37,2013-09-06 09:23:00,
2013-09-06 04:28:00,62.0,59.3,30.09,SE,136,0.0,0.0,91,0.00,CLR,,0.00,WeatherDisplay:10.37,2013-09-06 09:28:00,
2013-09-06 04:33:00,61.8,59.1,30.09,SE,136,0.0,0.0,91,0.00,CLR,,0.00,WeatherDisplay:10.37,2013-09-06 09:33:00,
2013-09-06 04:38:00,61.6,58.9,30.09,SE,136,0.0,0.0,91,0.00,CLR,,0.00,WeatherDisplay:10.37,2013-09-06 09:38:00,
2013-09-06 04:43:00,61.4,58.7,30.09,SE,136,0.0,0.0,91,0.00,CLR,,0.00,WeatherDisplay:10.37,2013-09-06 09:43:00,
2013-09-06 04:48:00,61.3,59.0,30.09,SE,136,0.0,0.0,92,0.00,CLR,,0.00,WeatherDisplay:10.37,2013-09-06 09:48:00,
2013-09-06 04:53:00,61.3,59.0,30.09,SE,136,0.0,0.0,92,0.00,CLR,,0.00,WeatherDisplay:10.37,2013-09-06 09:53:00,
2013-09-06 04:58:00,61.2,58.9,30.09,SE,136,0.0,0.0,92,0.00,CLR,,0.00,WeatherDisplay:10.37,2013-09-06 09:58:00,
2013-09-06 05:03:00,61.2,58.9,30.09,SE,136,0.0,0.0,92,0.00,CLR,,0.00,WeatherDisplay:10.37,2013-09-06 10:03:00,
2013-09-06 05:08:00,61.2,58.9,30.09,SE,136,0.0,0.0,92,0.00,CLR,,0.00,WeatherDisplay:10.37,2013-09-06 10:08:00,
2013-09-06 05:13:00,61.1,59.1,30.09,SE,136,0.0,0.0,93,0.00,CLR,,0.00,WeatherDisplay:10.37,2013-09-06 10:13:00,
2013-09-06 05:18:00,61.1,59.1,30.09,SE,136,0.0,0.0,93,0.00,CLR,,0.00,WeatherDisplay:10.37,2013-09-06 10:18:00,
2013-09-06 05:23:00,61.1,59.1,30.09,SE,136,0.0,0.0,93,0.00,CLR,,0.00,WeatherDisplay:10.37,2013-09-06 10:23:00,
2013-09-06 05:28:00,61.1,59.1,30.09,SE,136,0.0,0.0,93,0.00,CLR,,0.00,WeatherDisplay:10.37,2013-09-06 10:28:00,
2013-09-06 05:33:00,61.1,59.1,30.09,SE,136,0.0,0.0,93,0.00,CLR,,0.00,WeatherDisplay:10.37,2013-09-06 10:33:00,
2013-09-06 05:38:00,61.1,59.1,30.09,SE,136,0.0,0.0,93,0.00,CLR,,0.00,WeatherDisplay:10.37,2013-09-06 10:38:00,
2013-09-06 05:43:00,61.0,59.0,30.09,SE,136,1.0,1.0,93,0.00,CLR,,0.00,WeatherDisplay:10.37,2013-09-06 10:43:00,
2013-09-06 05:48:00,60.8,58.8,30.09,SE,136,1.2,1.2,93,0.00,CLR,,0.00,WeatherDisplay:10.37,2013-09-06 10:48:00,
2013-09-06 05:53:00,60.7,58.7,30.09,SE,136,1.2,1.2,93,0.00,CLR,,0.00,WeatherDisplay:10.37,2013-09-06 10:53:00,
2013-09-06 05:58:00,60.7,58.7,30.09,SE,136,1.2,0.0,93,0.00,CLR,,0.00,WeatherDisplay:10.37,2013-09-06 10:58:00,
2013-09-06 06:03:00,60.7,58.7,30.09,SE,136,0.0,0.0,93,0.00,CLR,,0.00,WeatherDisplay:10.37,2013-09-06 11:03:00,
2013-09-06 06:08:00,60.6,58.9,30.09,SE,136,0.0,0.1,94,0.00,CLR,,0.00,WeatherDisplay:10.37,2013-09-06 11:08:00,
2013-09-06 06:13:00,60.6,58.9,30.09,SE,136,0.0,0.0,94,0.00,CLR,,0.00,WeatherDisplay:10.37,2013-09-06 11:13:00,
2013-09-06 06:18:00,60.7,59.0,30.09,SE,136,1.2,1.2,94,0.00,CLR,,0.00,WeatherDisplay:10.37,2013-09-06 11:18:00,
2013-09-06 06:23:00,60.8,59.1,30.09,SE,136,1.2,1.2,94,0.00,CLR,,0.00,WeatherDisplay:10.37,2013-09-06 11:23:00,
2013-09-06 06:28:00,60.9,59.2,30.09,SE,136,1.2,1.2,94,0.00,CLR,,0.00,WeatherDisplay:10.37,2013-09-06 11:28:00,
2013-09-06 06:33:00,60.9,59.2,30.08,SE,136,1.2,1.2,94,0.00,CLR,,0.00,WeatherDisplay:10.37,2013-09-06 11:33:00,
2013-09-06 06:38:00,61.0,59.3,30.08,SE,136,1.2,1.2,94,0.00,CLR,,0.00,WeatherDisplay:10.37,2013-09-06 11:38:00,
2013-09-06 06:43:00,61.0,59.3,30.08,SE,136,2.3,2.3,94,0.00,CLR,,0.00,WeatherDisplay:10.37,2013-09-06 11:43:00,
2013-09-06 06:48:00,61.0,59.3,30.08,SE,136,1.2,1.2,94,0.00,CLR,,0.00,WeatherDisplay:10.37,2013-09-06 11:48:00,
2013-09-06 06:53:00,61.0,59.3,30.09,SE,136,1.2,1.2,94,0.00,CLR,,0.00,WeatherDisplay:10.37,2013-09-06 11:53:00,
2013-09-06 06:58:00,61.0,59.3,30.08,SE,136,2.3,2.3,94,0.00,CLR,,0.00,WeatherDisplay:10.37,2013-09-06 11:58:00,
2013-09-06 07:03:00,61.0,59.3,30.08,SE,136,2.3,2.3,94,0.00,CLR,,0.00,WeatherDisplay:10.37,2013-09-06 12:03:00,
2013-09-06 07:08:00,60.9,59.2,30.08,SE,136,1.2,1.2,94,0.00,CLR,,0.00,WeatherDisplay:10.37,2013-09-06 12:08:00,
2013-09-06 07:13:00,60.9,59.2,30.08,SE,136,2.3,2.3,94,0.00,CLR,,0.00,WeatherDisplay:10.37,2013-09-06 12:13:00,
2013-09-06 07:18:00,60.8,59.1,30.08,SE,135,2.3,2.3,94,0.00,CLR,,0.00,WeatherDisplay:10.37,2013-09-06 12:18:00,
2013-09-06 07:23:00,60.8,59.1,30.08,SE,136,2.3,2.3,94,0.00,CLR,,0.00,WeatherDisplay:10.37,2013-09-06 12:23:00,
2013-09-06 07:28:00,60.8,59.4,30.08,SE,136,1.2,1.2,95,0.00,CLR,,0.00,WeatherDisplay:10.37,2013-09-06 12:28:00,
2013-09-06 07:33:00,60.9,59.5,30.08,SE,136,1.2,1.2,95,0.00,CLR,,0.00,WeatherDisplay:10.37,2013-09-06 12:33:00,
2013-09-06 07:38:00,61.0,59.6,30.08,SE,136,1.2,0.0,95,0.00,CLR,,0.00,WeatherDisplay:10.37,2013-09-06 12:38:00,
2013-09-06 07:43:00,61.2,59.8,30.08,SE,136,1.2,1.2,95,0.00,CLR,,0.00,WeatherDisplay:10.37,2013-09-06 12:43:00,
2013-09-06 07:49:00,61.5,60.1,30.08,SE,135,2.3,2.3,95,0.00,CLR,,0.00,WeatherDisplay:10.37,2013-09-06 12:49:00,
2013-09-06 07:54:00,61.9,60.2,30.08,SSE,152,3.5,3.5,94,0.00,CLR,,0.00,WeatherDisplay:10.37,2013-09-06 12:54:00,
2013-09-06 07:59:00,62.3,60.6,30.08,SE,126,3.5,3.5,94,0.00,CLR,,0.00,WeatherDisplay:10.37,2013-09-06 12:59:00,
2013-09-06 08:04:00,62.8,61.0,30.08,SE,128,3.5,3.5,94,0.00,CLR,,0.00,WeatherDisplay:10.37,2013-09-06 13:04:00,
2013-09-06 08:09:00,63.3,61.2,30.08,SE,145,4.6,4.6,93,0.00,CLR,,0.00,WeatherDisplay:10.37,2013-09-06 13:09:00,
2013-09-06 08:14:00,63.7,61.3,30.07,SE,131,3.5,3.5,92,0.00,CLR,,0.00,WeatherDisplay:10.37,2013-09-06 13:14:00,
2013-09-06 08:19:00,64.1,61.7,30.07,SE,125,3.5,3.5,92,0.00,CLR,,0.00,WeatherDisplay:10.37,2013-09-06 13:19:00,
2013-09-06 08:24:00,64.3,61.9,30.08,SE,146,3.5,3.5,92,0.00,CLR,,0.00,WeatherDisplay:10.37,2013-09-06 13:24:00,
2013-09-06 08:29:00,64.6,62.2,30.07,SE,141,3.5,3.5,92,0.00,CLR,,0.00,WeatherDisplay:10.37,2013-09-06 13:29:00,
2013-09-06 08:34:00,65.4,62.7,30.07,SE,124,4.6,4.6,91,0.00,CLR,,0.00,WeatherDisplay:10.37,2013-09-06 13:34:00,
2013-09-06 08:39:00,66.4,63.1,30.07,SE,146,8.1,8.1,89,0.00,CLR,,0.00,WeatherDisplay:10.37,2013-09-06 13:39:00,
2013-09-06 08:44:00,67.1,63.4,30.07,ESE,115,8.1,8.1,88,0.00,CLR,,0.00,WeatherDisplay:10.37,2013-09-06 13:44:00,
2013-09-06 08:49:00,67.7,64.0,30.07,East,96,6.9,6.9,88,0.00,CLR,,0.00,WeatherDisplay:10.37,2013-09-06 13:49:00,
2013-09-06 08:54:00,68.4,64.0,30.07,ESE,123,6.9,6.9,86,0.00,CLR,,0.00,WeatherDisplay:10.37,2013-09-06 13:54:00,
2013-09-06 08:59:00,68.9,64.2,30.07,SSE,150,4.6,4.6,85,0.00,CLR,,0.00,WeatherDisplay:10.37,2013-09-06 13:59:00,
2013-09-06 09:04:00,69.5,64.5,30.07,SE,136,11.5,11.5,84,0.00,CLR,,0.00,WeatherDisplay:10.37,2013-09-06 14:04:00,
2013-09-06 09:09:00,70.0,64.9,30.06,SSE,159,6.9,6.9,84,0.00,CLR,,0.00,WeatherDisplay:10.37,2013-09-06 14:09:00,
2013-09-06 09:14:00,70.4,65.0,30.06,SSE,148,8.1,8.1,83,0.00,CLR,,0.00,WeatherDisplay:10.37,2013-09-06 14:14:00,
2013-09-06 09:19:00,70.8,65.4,30.06,SE,132,6.9,6.9,83,0.00,CLR,,0.00,WeatherDisplay:10.37,2013-09-06 14:19:00,
2013-09-06 09:24:00,71.5,65.4,30.06,SE,134,9.2,9.2,81,0.00,CLR,,0.00,WeatherDisplay:10.37,2013-09-06 14:24:00,
2013-09-06 09:29:00,72.1,65.9,30.06,ESE,112,5.8,5.8,81,0.00,CLR,,0.00,WeatherDisplay:10.37,2013-09-06 14:29:00,
2013-09-06 09:34:00,72.7,65.8,30.06,SE,141,13.8,13.8,79,0.00,CLR,,0.00,WeatherDisplay:10.37,2013-09-06 14:34:00,
2013-09-06 09:39:00,73.0,66.1,30.06,SE,142,6.9,6.9,79,0.00,CLR,,0.00,WeatherDisplay:10.37,2013-09-06 14:39:00,
2013-09-06 09:44:00,73.2,65.9,30.06,SSE,161,8.1,8.1,78,0.00,CLR,,0.00,WeatherDisplay:10.37,2013-09-06 14:44:00,
2013-09-06 09:49:00,73.7,66.4,30.06,SE,132,10.4,10.4,78,0.00,CLR,,0.00,WeatherDisplay:10.37,2013-09-06 14:49:00,
2013-09-06 09:54:00,74.4,66.3,30.05,SE,128,10.4,10.4,76,0.00,CLR,,0.00,WeatherDisplay:10.37,2013-09-06 14:54:00,
2013-09-06 09:59:00,75.1,66.2,30.05,SE,134,10.4,10.4,74,0.00,CLR,,0.00,WeatherDisplay:10.37,2013-09-06 14:59:00,
2013-09-06 10:04:00,75.6,66.7,30.05,SE,144,10.4,10.4,74,0.00,CLR,,0.00,WeatherDisplay:10.37,2013-09-06 15:04:00,
2013-09-06 10:09:00,76.2,66.5,30.05,SE,132,9.2,9.2,72,0.00,CLR,,0.00,WeatherDisplay:10.37,2013-09-06 15:09:00,
2013-09-06 10:14:00,76.7,66.6,30.05,SE,136,6.9,6.9,71,0.00,CLR,,0.00,WeatherDisplay:10.37,2013-09-06 15:14:00,
2013-09-06 10:19:00,77.3,66.7,30.05,SSE,159,10.4,10.4,70,0.00,CLR,,0.00,WeatherDisplay:10.37,2013-09-06 15:19:00,
2013-09-06 10:24:00,77.7,66.7,30.05,SE,138,11.5,11.5,69,0.00,CLR,,0.00,WeatherDisplay:10.37,2013-09-06 15:24:00,
2013-09-06 10:29:00,78.3,66.9,30.04,SE,144,8.1,8.1,68,0.00,CLR,,0.00,WeatherDisplay:10.37,2013-09-06 15:29:00,
2013-09-06 10:34:00,78.8,67.3,30.04,SE,136,13.8,13.8,68,0.00,CLR,,0.00,WeatherDisplay:10.37,2013-09-06 15:34:00,
2013-09-06 10:39:00,79.3,67.4,30.04,SSE,150,12.7,12.7,67,0.00,CLR,,0.00,WeatherDisplay:10.37,2013-09-06 15:39:00,
2013-09-06 10:44:00,80.0,67.2,30.04,SSE,150,11.5,11.5,65,0.00,CLR,,0.00,WeatherDisplay:10.37,2013-09-06 15:44:00,
2013-09-06 10:49:00,80.5,68.1,30.04,SE,139,5.8,5.8,66,0.00,CLR,,0.00,WeatherDisplay:10.37,2013-09-06 15:49:00,
2013-09-06 10:54:00,81.2,67.9,30.04,SSE,159,10.4,10.4,64,0.00,CLR,,0.00,WeatherDisplay:10.37,2013-09-06 15:54:00,
2013-09-06 10:59:00,81.6,67.8,30.04,SE,134,11.0,11.0,63,0.00,CLR,,0.00,WeatherDisplay:10.37,2013-09-06 15:59:00,
2013-09-06 11:04:00,82.1,67.8,30.04,SE,136,10.4,10.4,62,0.00,CLR,,0.00,WeatherDisplay:10.37,2013-09-06 16:04:00,
2013-09-06 11:09:00,82.5,67.2,30.04,SE,130,11.5,11.5,60,0.00,CLR,,0.00,WeatherDisplay:10.37,2013-09-06 16:09:00,
2013-09-06 11:14:00,82.7,67.4,30.04,SSE,152,12.0,12.0,60,0.00,CLR,,0.00,WeatherDisplay:10.37,2013-09-06 16:14:00,
2013-09-06 11:19:00,83.2,67.9,30.03,SSE,161,6.9,6.9,60,0.00,CLR,,0.00,WeatherDisplay:10.37,2013-09-06 16:19:00,
2013-09-06 11:24:00,83.9,67.5,30.03,SSE,167,6.9,6.9,58,0.00,CLR,,0.00,WeatherDisplay:10.37,2013-09-06 16:24:00,
2013-09-06 11:29:00,84.3,66.9,30.03,South,171,11.0,11.0,56,0.00,CLR,,0.00,WeatherDisplay:10.37,2013-09-06 16:29:00,
2013-09-06 11:34:00,84.8,67.9,30.03,SSW,194,9.2,9.2,57,0.00,CLR,,0.00,WeatherDisplay:10.37,2013-09-06 16:34:00,
2013-09-06 11:39:00,85.1,67.1,30.03,SE,127,11.5,11.5,55,0.00,CLR,,0.00,WeatherDisplay:10.37,2013-09-06 16:39:00,
2013-09-06 11:44:00,85.3,67.3,30.03,SSE,147,9.2,9.2,55,0.00,CLR,,0.00,WeatherDisplay:10.37,2013-09-06 16:44:00,
2013-09-06 11:49:00,85.5,67.0,30.03,SSW,202,9.2,9.2,54,0.00,CLR,,0.00,WeatherDisplay:10.37,2013-09-06 16:49:00,
2013-09-06 11:54:00,86.0,66.9,30.03,SSE,166,10.4,10.4,53,0.00,CLR,,0.00,WeatherDisplay:10.37,2013-09-06 16:54:00,
2013-09-06 11:59:00,86.0,67.4,30.02,SE,129,11.5,11.5,54,0.00,CLR,,0.00,WeatherDisplay:10.37,2013-09-06 16:59:00,
2013-09-06 12:04:00,86.0,66.3,30.02,SSE,163,14.0,14.0,52,0.00,CLR,,0.00,WeatherDisplay:10.37,2013-09-06 17:04:00,
2013-09-06 12:09:00,86.2,67.1,30.02,SSE,151,10.4,10.4,53,0.00,CLR,,0.00,WeatherDisplay:10.37,2013-09-06 17:09:00,
2013-09-06 12:14:00,86.8,67.1,30.02,SE,138,10.4,10.4,52,0.00,CLR,,0.00,WeatherDisplay:10.37,2013-09-06 17:14:00,
2013-09-06 12:19:00,87.4,68.2,30.02,SSE,161,6.9,6.9,53,0.00,CLR,,0.00,WeatherDisplay:10.37,2013-09-06 17:19:00,
2013-09-06 12:24:00,88.2,67.8,30.02,SW,219,11.5,11.5,51,0.00,CLR,,0.00,WeatherDisplay:10.37,2013-09-06 17:24:00,
2013-09-06 12:29:00,88.2,66.6,30.01,SE,131,10.4,10.4,49,0.00,CLR,,0.00,WeatherDisplay:10.37,2013-09-06 17:29:00,
2013-09-06 12:34:00,88.4,66.8,30.01,SE,125,13.8,13.8,49,0.00,CLR,,0.00,WeatherDisplay:10.37,2013-09-06 17:34:00,
2013-09-06 12:39:00,88.4,67.4,30.01,SE,142,9.2,9.2,50,0.00,CLR,,0.00,WeatherDisplay:10.37,2013-09-06 17:39:00,
2013-09-06 12:44:00,88.4,66.8,30.01,SSE,157,12.7,12.7,49,0.00,CLR,,0.00,WeatherDisplay:10.37,2013-09-06 17:44:00,
2013-09-06 12:49:00,88.6,67.6,30.00,SSE,164,11.5,11.5,50,0.00,CLR,,0.00,WeatherDisplay:10.37,2013-09-06 17:49:00,
2013-09-06 12:55:00,88.9,66.7,30.00,SE,131,6.9,8.1,48,0.00,CLR,,0.00,WeatherDisplay:10.37,2013-09-06 17:55:00,
2013-09-06 13:00:00,89.3,67.6,30.00,SSE,160,6.0,12.0,49,0.00,CLR,,0.00,WeatherDisplay:10.37,2013-09-06 18:00:00,
2013-09-06 13:04:00,89.5,67.2,30.00,SSE,149,10.4,10.4,48,0.00,CLR,,0.00,WeatherDisplay:10.37,2013-09-06 18:04:00,
2013-09-06 13:10:00,89.8,67.5,29.99,SSE,147,6.9,6.9,48,0.00,CLR,,0.00,WeatherDisplay:10.37,2013-09-06 18:10:00,
2013-09-06 13:15:00,90.1,66.5,29.99,SSE,151,8.0,13.0,46,0.00,CLR,,0.00,WeatherDisplay:10.37,2013-09-06 18:15:00,
2013-09-06 13:19:00,90.1,67.2,29.99,South,172,12.7,12.7,47,0.00,CLR,,0.00,WeatherDisplay:10.37,2013-09-06 18:19:00,
2013-09-06 13:25:00,90.3,66.8,29.99,SSE,149,7.0,13.0,46,0.00,CLR,,0.00,WeatherDisplay:10.37,2013-09-06 18:25:00,
2013-09-06 13:30:00,90.4,66.8,29.99,ESE,114,13.8,13.8,46,0.00,CLR,,0.00,WeatherDisplay:10.37,2013-09-06 18:30:00,
2013-09-06 13:35:00,90.4,66.8,29.99,SE,143,8.0,18.0,46,0.00,CLR,,0.00,WeatherDisplay:10.37,2013-09-06 18:35:00,
2013-09-06 13:40:00,90.9,66.6,29.99,SSE,149,6.0,14.0,45,0.00,CLR,,0.00,WeatherDisplay:10.37,2013-09-06 18:40:00,
2013-09-06 13:45:00,91.0,66.7,29.99,SE,144,10.0,16.0,45,0.00,CLR,,0.00,WeatherDisplay:10.37,2013-09-06 18:45:00,
2013-09-06 13:50:00,91.1,66.8,29.99,SE,141,5.0,16.0,45,0.00,CLR,,0.00,WeatherDisplay:10.37,2013-09-06 18:50:00,
2013-09-06 13:55:00,91.3,67.0,29.98,SE,145,7.0,16.0,45,0.00,CLR,,0.00,WeatherDisplay:10.37,2013-09-06 18:55:00,
2013-09-06 13:59:00,91.4,66.4,29.98,SSE,163,15.0,15.0,44,0.00,CLR,,0.00,WeatherDisplay:10.37,2013-09-06 18:59:00,
2013-09-06 14:05:00,91.8,66.1,29.98,South,171,13.8,13.8,43,0.00,CLR,,0.00,WeatherDisplay:10.37,2013-09-06 19:05:00,
2013-09-06 14:10:00,91.9,65.5,29.98,SE,138,9.0,17.0,42,0.00,CLR,,0.00,WeatherDisplay:10.37,2013-09-06 19:10:00,
2013-09-06 14:14:00,92.4,66.7,29.97,SE,130,11.5,11.5,43,0.00,CLR,,0.00,WeatherDisplay:10.37,2013-09-06 19:14:00,
2013-09-06 14:20:00,92.8,66.3,29.97,SE,141,10.4,10.4,42,0.00,CLR,,0.00,WeatherDisplay:10.37,2013-09-06 19:20:00,
2013-09-06 14:25:00,92.9,66.4,29.97,SSE,147,8.0,15.0,42,0.00,CLR,,0.00,WeatherDisplay:10.37,2013-09-06 19:25:00,
2013-09-06 14:29:00,92.8,65.6,29.97,South,184,11.5,11.5,41,0.00,CLR,,0.00,WeatherDisplay:10.37,2013-09-06 19:29:00,
2013-09-06 14:35:00,92.5,66.1,29.97,SE,146,6.0,15.0,42,0.00,CLR,,0.00,WeatherDisplay:10.37,2013-09-06 19:35:00,
2013-09-06 14:40:00,92.7,65.5,29.97,SSE,148,9.0,13.0,41,0.00,CLR,,0.00,WeatherDisplay:10.37,2013-09-06 19:40:00,
2013-09-06 14:45:00,92.9,67.1,29.96,SSE,150,6.0,17.0,43,0.00,CLR,,0.00,WeatherDisplay:10.37,2013-09-06 19:45:00,
2013-09-06 14:50:00,93.2,66.7,29.96,SSE,149,8.0,14.0,42,0.00,CLR,,0.00,WeatherDisplay:10.37,2013-09-06 19:50:00,
2013-09-06 14:55:00,93.2,66.0,29.96,SE,144,8.0,17.0,41,0.00,CLR,,0.00,WeatherDisplay:10.37,2013-09-06 19:55:00,
2013-09-06 14:59:00,93.1,65.9,29.95,SE,142,11.5,11.5,41,0.00,CLR,,0.00,WeatherDisplay:10.37,2013-09-06 19:59:00,
2013-09-06 15:05:00,93.1,66.6,29.95,SSE,158,5.0,16.0,42,0.00,CLR,,0.00,WeatherDisplay:10.37,2013-09-06 20:05:00,
2013-09-06 15:09:00,93.4,66.9,29.95,SE,135,10.4,10.4,42,0.00,CLR,,0.00,WeatherDisplay:10.37,2013-09-06 20:09:00,
2013-09-06 15:15:00,93.7,67.1,29.95,SSE,149,8.0,15.0,42,0.00,CLR,,0.00,WeatherDisplay:10.37,2013-09-06 20:15:00,
2013-09-06 15:20:00,93.6,67.1,29.94,SE,134,11.5,11.5,42,0.00,CLR,,0.00,WeatherDisplay:10.37,2013-09-06 20:20:00,
2013-09-06 15:25:00,93.6,67.1,29.94,SE,143,10.0,16.0,42,0.00,CLR,,0.00,WeatherDisplay:10.37,2013-09-06 20:25:00,
2013-09-06 15:30:00,92.9,66.4,29.94,SE,128,15.0,15.0,42,0.00,CLR,,0.00,WeatherDisplay:10.37,2013-09-06 20:30:00,
2013-09-06 15:35:00,92.6,66.8,29.94,SSE,151,6.0,17.0,43,0.00,CLR,,0.00,WeatherDisplay:10.37,2013-09-06 20:35:00,
2013-09-06 15:39:00,92.8,66.3,29.94,SE,130,12.7,12.7,42,0.00,CLR,,0.00,WeatherDisplay:10.37,2013-09-06 20:39:00,
2013-09-06 15:45:00,92.9,67.8,29.94,SSE,152,5.0,15.0,44,0.00,CLR,,0.00,WeatherDisplay:10.37,2013-09-06 20:45:00,
2013-09-06 15:50:00,93.1,65.9,29.94,SSE,159,9.0,13.0,41,0.00,CLR,,0.00,WeatherDisplay:10.37,2013-09-06 20:50:00,
2013-09-06 15:54:00,92.7,66.9,29.94,SSW,201,11.5,11.5,43,0.00,CLR,,0.00,WeatherDisplay:10.37,2013-09-06 20:54:00,
2013-09-06 16:00:00,92.4,66.7,29.94,SE,143,8.0,15.0,43,0.00,CLR,,0.00,WeatherDisplay:10.37,2013-09-06 21:00:00,
2013-09-06 16:05:00,92.4,67.3,29.93,SE,136,5.0,12.0,44,0.00,CLR,,0.00,WeatherDisplay:10.37,2013-09-06 21:05:00,
2013-09-06 16:09:00,92.7,66.9,29.93,ESE,121,10.4,10.4,43,0.00,CLR,,0.00,WeatherDisplay:10.37,2013-09-06 21:09:00,
2013-09-06 16:15:00,92.7,66.9,29.93,SE,145,8.0,15.0,43,0.00,CLR,,0.00,WeatherDisplay:10.37,2013-09-06 21:15:00,
2013-09-06 16:20:00,92.8,66.3,29.93,SE,141,8.0,12.0,42,0.00,CLR,,0.00,WeatherDisplay:10.37,2013-09-06 21:20:00,
2013-09-06 16:25:00,92.6,66.2,29.93,SSE,167,11.5,11.5,42,0.00,CLR,,0.00,WeatherDisplay:10.37,2013-09-06 21:25:00,
2013-09-06 16:30:00,92.5,66.7,29.93,SSE,152,3.0,12.0,43,0.00,CLR,,0.00,WeatherDisplay:10.37,2013-09-06 21:30:00,
2013-09-06 16:34:00,92.7,66.9,29.93,South,175,11.5,11.5,43,0.00,CLR,,0.00,WeatherDisplay:10.37,2013-09-06 21:34:00,
2013-09-06 16:40:00,92.6,65.5,29.93,SSE,168,13.0,13.0,41,0.00,CLR,,0.00,WeatherDisplay:10.37,2013-09-06 21:40:00,
2013-09-06 16:44:00,92.5,65.4,29.93,SSE,153,9.0,14.0,41,0.00,CLR,,0.00,WeatherDisplay:10.37,2013-09-06 21:44:00,
2013-09-06 16:49:00,92.2,65.8,29.92,SSE,157,11.5,11.5,42,0.00,CLR,,0.00,WeatherDisplay:10.37,2013-09-06 21:49:00,
2013-09-06 16:55:00,92.0,66.9,29.92,SSE,149,7.0,18.0,44,0.00,CLR,,0.00,WeatherDisplay:10.37,2013-09-06 21:55:00,
2013-09-06 17:00:00,91.7,66.7,29.92,SE,146,8.0,12.0,44,0.00,CLR,,0.00,WeatherDisplay:10.37,2013-09-06 22:00:00,
2013-09-06 17:04:00,91.4,67.1,29.92,SSE,167,9.2,9.2,45,0.00,CLR,,0.00,WeatherDisplay:10.37,2013-09-06 22:04:00,
2013-09-06 17:10:00,91.7,67.3,29.92,ESE,119,12.7,12.7,45,0.00,CLR,,0.00,WeatherDisplay:10.37,2013-09-06 22:10:00,
2013-09-06 17:15:00,91.9,67.5,29.92,SE,144,7.0,17.0,45,0.00,CLR,,0.00,WeatherDisplay:10.37,2013-09-06 22:15:00,
2013-09-06 17:19:00,92.2,67.1,29.92,South,186,15.0,15.0,44,0.00,CLR,,0.00,WeatherDisplay:10.37,2013-09-06 22:19:00,
2013-09-06 17:24:00,92.2,67.1,29.92,SSE,150,7.0,14.0,44,0.00,CLR,,0.00,WeatherDisplay:10.37,2013-09-06 22:24:00,
2013-09-06 17:29:00,92.1,67.1,29.92,SE,136,12.7,12.7,44,0.00,CLR,,0.00,WeatherDisplay:10.37,2013-09-06 22:29:00,
2013-09-06 17:34:00,91.8,66.8,29.92,SSE,168,13.8,13.8,44,0.00,CLR,,0.00,WeatherDisplay:10.37,2013-09-06 22:34:00,
2013-09-06 17:39:00,91.3,67.0,29.92,SE,132,11.5,11.5,45,0.00,CLR,,0.00,WeatherDisplay:10.37,2013-09-06 22:39:00,
2013-09-06 17:44:00,91.0,67.3,29.92,SSE,147,13.8,13.8,46,0.00,CLR,,0.00,WeatherDisplay:10.37,2013-09-06 22:44:00,
2013-09-06 17:50:00,90.8,67.8,29.92,SSE,157,11.5,11.5,47,0.00,CLR,,0.00,WeatherDisplay:10.37,2013-09-06 22:50:00,
2013-09-06 17:54:00,90.7,67.7,29.92,SE,145,7.0,16.0,47,0.00,CLR,,0.00,WeatherDisplay:10.37,2013-09-06 22:54:00,
2013-09-06 17:59:00,90.8,67.8,29.91,ESE,117,11.5,11.5,47,0.00,CLR,,0.00,WeatherDisplay:10.37,2013-09-06 22:59:00,
2013-09-06 18:04:00,90.8,67.8,29.91,SSE,149,7.0,14.0,47,0.00,CLR,,0.00,WeatherDisplay:10.37,2013-09-06 23:04:00,
2013-09-06 18:09:00,90.6,67.6,29.91,ESE,119,9.0,9.0,47,0.00,CLR,,0.00,WeatherDisplay:10.37,2013-09-06 23:09:00,
2013-09-06 18:14:00,90.3,67.9,29.91,SSE,167,9.2,9.2,48,0.00,CLR,,0.00,WeatherDisplay:10.37,2013-09-06 23:14:00,
2013-09-06 18:20:00,90.2,67.9,29.91,SSE,149,7.0,12.0,48,0.00,CLR,,0.00,WeatherDisplay:10.37,2013-09-06 23:20:00,
2013-09-06 18:24:00,90.1,68.3,29.91,SE,143,5.0,10.0,49,0.00,CLR,,0.00,WeatherDisplay:10.37,2013-09-06 23:24:00,
2013-09-06 18:29:00,89.9,67.6,29.91,SSE,152,11.5,11.5,48,0.00,CLR,,0.00,WeatherDisplay:10.37,2013-09-06 23:29:00,
2013-09-06 18:35:00,89.7,67.4,29.91,SSE,152,6.0,15.0,48,0.00,CLR,,0.00,WeatherDisplay:10.37,2013-09-06 23:35:00,
2013-09-06 18:40:00,89.5,67.8,29.91,SE,146,6.0,9.0,49,0.00,CLR,,0.00,WeatherDisplay:10.37,2013-09-06 23:40:00,
2013-09-06 18:44:00,89.3,67.0,29.90,South,169,12.0,12.0,48,0.00,CLR,,0.00,WeatherDisplay:10.37,2013-09-06 23:44:00,
2013-09-06 18:49:00,89.1,66.9,29.90,SE,124,11.5,11.5,48,0.00,CLR,,0.00,WeatherDisplay:10.37,2013-09-06 23:49:00,
2013-09-06 18:54:00,88.9,66.7,29.90,SE,127,10.4,10.4,48,0.00,CLR,,0.00,WeatherDisplay:10.37,2013-09-06 23:54:00,
2013-09-06 19:00:00,88.6,67.0,29.90,SE,142,9.2,9.2,49,0.00,CLR,,0.00,WeatherDisplay:10.37,2013-09-07 00:00:00,
2013-09-06 19:05:00,88.3,67.3,29.90,SE,140,5.0,10.0,50,0.00,CLR,,0.00,WeatherDisplay:10.37,2013-09-07 00:05:00,
2013-09-06 19:09:00,88.0,67.6,29.89,SSE,157,6.9,6.9,51,0.00,CLR,,0.00,WeatherDisplay:10.37,2013-09-07 00:09:00,
2013-09-06 19:15:00,87.7,67.3,29.89,SSE,168,6.9,6.9,51,0.00,CLR,,0.00,WeatherDisplay:10.37,2013-09-07 00:15:00,
2013-09-06 19:20:00,87.5,67.7,29.89,SE,143,6.0,10.0,52,0.00,CLR,,0.00,WeatherDisplay:10.37,2013-09-07 00:20:00,
2013-09-06 19:24:00,87.2,68.0,29.89,SSE,157,8.1,8.1,53,0.00,CLR,,0.00,WeatherDisplay:10.37,2013-09-07 00:24:00,
2013-09-06 19:30:00,86.8,67.6,29.89,SE,146,8.1,8.1,53,0.00,CLR,,0.00,WeatherDisplay:10.37,2013-09-07 00:30:00,
2013-09-06 19:35:00,86.4,67.8,29.90,SE,141,3.0,7.0,54,0.00,CLR,,0.00,WeatherDisplay:10.37,2013-09-07 00:35:00,
2013-09-06 19:39:00,85.9,67.9,29.89,SSE,155,5.8,5.8,55,0.00,CLR,,0.00,WeatherDisplay:10.37,2013-09-07 00:39:00,
2013-09-06 19:45:00,85.5,68.0,29.89,SE,141,2.0,6.0,56,0.00,CLR,,0.00,WeatherDisplay:10.37,2013-09-07 00:45:00,
2013-09-06 19:50:00,85.1,68.6,29.90,SE,137,2.0,7.0,58,0.00,CLR,,0.00,WeatherDisplay:10.37,2013-09-07 00:50:00,
2013-09-06 19:54:00,84.6,68.7,29.89,SE,125,3.5,3.5,59,0.00,CLR,,0.00,WeatherDisplay:10.37,2013-09-07 00:54:00,
2013-09-06 20:00:00,84.1,68.7,29.90,SE,136,2.0,6.0,60,0.00,CLR,,0.00,WeatherDisplay:10.37,2013-09-07 01:00:00,
2013-09-06 20:04:00,83.7,68.8,29.89,SE,132,6.9,6.9,61,0.00,CLR,,0.00,WeatherDisplay:10.37,2013-09-07 01:04:00,
2013-09-06 20:10:00,83.3,68.4,29.90,ESE,115,3.5,3.5,61,0.00,CLR,,0.00,WeatherDisplay:10.37,2013-09-07 01:10:00,
2013-09-06 20:14:00,83.0,68.6,29.90,SE,136,3.0,4.0,62,0.00,CLR,,0.00,WeatherDisplay:10.37,2013-09-07 01:14:00,
2013-09-06 20:19:00,82.6,68.3,29.89,SE,138,4.6,4.6,62,0.00,CLR,,0.00,WeatherDisplay:10.37,2013-09-07 01:19:00,
2013-09-06 20:25:00,82.1,68.7,29.89,SE,134,3.5,3.5,64,0.00,CLR,,0.00,WeatherDisplay:10.37,2013-09-07 01:25:00,
2013-09-06 20:30:00,81.5,68.6,29.89,SE,134,2.0,4.0,65,0.00,CLR,,0.00,WeatherDisplay:10.37,2013-09-07 01:30:00,
2013-09-06 20:34:00,80.8,68.4,29.89,SE,132,3.5,3.5,66,0.00,CLR,,0.00,WeatherDisplay:10.37,2013-09-07 01:34:00,
2013-09-06 20:40:00,80.4,68.5,29.89,SE,126,2.0,4.0,67,0.00,CLR,,0.00,WeatherDisplay:10.37,2013-09-07 01:40:00,
2013-09-06 20:45:00,80.1,68.2,29.89,SE,128,2.0,4.0,67,0.00,CLR,,0.00,WeatherDisplay:10.37,2013-09-07 01:45:00,
2013-09-06 20:49:00,79.9,68.0,29.89,SE,131,3.5,3.5,67,0.00,CLR,,0.00,WeatherDisplay:10.37,2013-09-07 01:49:00,
2013-09-06 20:54:00,79.8,67.9,29.89,SE,137,2.0,4.0,67,0.00,CLR,,0.00,WeatherDisplay:10.37,2013-09-07 01:54:00,
2013-09-06 20:59:00,79.6,68.1,29.89,SE,142,4.6,4.6,68,0.00,CLR,,0.00,WeatherDisplay:10.37,2013-09-07 01:59:00,
2013-09-06 21:04:00,79.3,67.8,29.89,SE,137,3.5,3.5,68,0.00,CLR,,0.00,WeatherDisplay:10.37,2013-09-07 02:04:00,
2013-09-06 21:10:00,79.2,67.7,29.90,SE,137,2.0,7.0,68,0.00,CLR,,0.00,WeatherDisplay:10.37,2013-09-07 02:10:00,
2013-09-06 21:14:00,79.0,68.0,29.90,SE,132,2.0,4.0,69,0.00,CLR,,0.00,WeatherDisplay:10.37,2013-09-07 02:14:00,
2013-09-06 21:20:00,78.7,67.7,29.90,SE,138,3.5,3.5,69,0.00,CLR,,0.00,WeatherDisplay:10.37,2013-09-07 02:20:00,
2013-09-06 21:25:00,78.4,67.8,29.90,SE,138,2.0,5.0,70,0.00,CLR,,0.00,WeatherDisplay:10.37,2013-09-07 02:25:00,
2013-09-06 21:29:00,77.9,67.7,29.90,SE,140,3.5,3.5,71,0.00,CLR,,0.00,WeatherDisplay:10.37,2013-09-07 02:29:00,
2013-09-06 21:34:00,77.4,67.7,29.90,SE,135,2.0,3.0,72,0.00,CLR,,0.00,WeatherDisplay:10.37,2013-09-07 02:34:00,
2013-09-06 21:39:00,76.9,67.6,29.90,SE,132,2.3,2.3,73,0.00,CLR,,0.00,WeatherDisplay:10.37,2013-09-07 02:39:00,
2013-09-06 21:44:00,76.5,67.6,29.90,SE,125,3.5,3.5,74,0.00,CLR,,0.00,WeatherDisplay:10.37,2013-09-07 02:44:00,
2013-09-06 21:50:00,76.2,67.7,29.90,SE,133,2.0,3.0,75,0.00,CLR,,0.00,WeatherDisplay:10.37,2013-09-07 02:50:00,
2013-09-06 21:55:00,76.1,67.6,29.90,SE,139,2.0,4.0,75,0.00,CLR,,0.00,WeatherDisplay:10.37,2013-09-07 02:55:00,
2013-09-06 21:59:00,75.9,67.4,29.90,SE,134,2.3,2.3,75,0.00,CLR,,0.00,WeatherDisplay:10.37,2013-09-07 02:59:00,
2013-09-06 22:05:00,75.8,67.7,29.90,SE,135,2.0,5.0,76,0.00,CLR,,0.00,WeatherDisplay:10.37,2013-09-07 03:05:00,
2013-09-06 22:10:00,75.8,67.7,29.90,SE,135,2.0,3.0,76,0.00,CLR,,0.00,WeatherDisplay:10.37,2013-09-07 03:10:00,
2013-09-06 22:14:00,75.9,67.7,29.90,SE,135,2.0,4.0,76,0.00,CLR,,0.00,WeatherDisplay:10.37,2013-09-07 03:14:00,
2013-09-06 22:20:00,75.9,67.8,29.90,SE,135,2.0,4.0,76,0.00,CLR,,0.00,WeatherDisplay:10.37,2013-09-07 03:20:00,
2013-09-06 22:24:00,75.8,68.1,29.90,SE,136,2.0,5.0,77,0.00,CLR,,0.00,WeatherDisplay:10.37,2013-09-07 03:24:00,
2013-09-06 22:30:00,75.7,68.0,29.90,SSE,148,3.5,3.5,77,0.00,CLR,,0.00,WeatherDisplay:10.37,2013-09-07 03:30:00,
2013-09-06 22:35:00,75.5,68.2,29.90,SE,135,2.0,3.0,78,0.00,CLR,,0.00,WeatherDisplay:10.37,2013-09-07 03:35:00,
2013-09-06 22:39:00,75.3,68.0,29.90,SE,142,3.5,3.5,78,0.00,CLR,,0.00,WeatherDisplay:10.37,2013-09-07 03:39:00,
2013-09-06 22:44:00,75.2,68.2,29.90,SSE,147,1.0,4.0,79,0.00,CLR,,0.00,WeatherDisplay:10.37,2013-09-07 03:44:00,
2013-09-06 22:49:00,75.0,68.0,29.90,SSE,156,3.5,3.5,79,0.00,CLR,,0.00,WeatherDisplay:10.37,2013-09-07 03:49:00,
2013-09-06 22:54:00,74.8,68.2,29.90,SE,128,3.5,3.5,80,0.00,CLR,,0.00,WeatherDisplay:10.37,2013-09-07 03:54:00,
2013-09-06 22:59:00,74.7,68.1,29.90,SE,135,2.0,3.0,80,0.00,CLR,,0.00,WeatherDisplay:10.37,2013-09-07 03:59:00,
2013-09-06 23:01:00,74.7,68.1,29.90,SE,135,3.5,3.5,80,0.00,CLR,,0.00,WeatherDisplay:10.37,2013-09-07 04:01:00,
2013-09-06 23:06:00,74.4,67.8,29.90,SE,133,3.5,3.5,80,0.00,CLR,,0.00,WeatherDisplay:10.37,2013-09-07 04:06:00,
2013-09-06 23:11:00,74.2,68.0,29.90,SE,132,3.5,3.5,81,0.00,CLR,,0.00,WeatherDisplay:10.37,2013-09-07 04:11:00,
2013-09-06 23:16:00,73.8,68.0,29.90,SE,142,3.5,3.5,82,0.00,CLR,,0.00,WeatherDisplay:10.37,2013-09-07 04:16:00,
2013-09-06 23:21:00,73.6,67.8,29.90,SE,126,3.5,3.5,82,0.00,CLR,,0.00,WeatherDisplay:10.37,2013-09-07 04:21:00,
2013-09-06 23:26:00,73.4,67.6,29.89,SE,138,3.5,3.5,82,0.00,CLR,,0.00,WeatherDisplay:10.37,2013-09-07 04:26:00,
2013-09-06 23:31:00,73.3,67.8,29.90,SE,140,3.5,3.5,83,0.00,CLR,,0.00,WeatherDisplay:10.37,2013-09-07 04:31:00,
2013-09-06 23:36:00,73.2,67.7,29.90,SE,128,3.5,3.5,83,0.00,CLR,,0.00,WeatherDisplay:10.37,2013-09-07 04:36:00,
2013-09-06 23:41:00,73.1,67.6,29.90,SE,137,3.5,3.5,83,0.00,CLR,,0.00,WeatherDisplay:10.37,2013-09-07 04:41:00,
2013-09-06 23:46:00,73.1,67.6,29.90,SE,131,3.0,3.0,83,0.00,CLR,,0.00,WeatherDisplay:10.37,2013-09-07 04:46:00,
2013-09-06 23:51:00,73.1,67.6,29.90,SE,132,3.5,3.5,83,0.00,CLR,,0.00,WeatherDisplay:10.37,2013-09-07 04:51:00,
2013-09-06 23:56:00,73.1,67.3,29.90,SE,130,3.5,3.5,82,0.00,CLR,,0.00,WeatherDisplay:10.37,2013-09-07 04:56:00,